This is the latest recevied weather packets stored in our database for station/object VE9LJW. If no packets are shown the sender has not sent any weather packets the latest 10 day(s).
| Time | Temp. | Humidity | Pressure | Rain* | Wind** | Luminosity | Snow |
|---|---|---|---|---|---|---|---|
| 1777569187 | 15° C | 68% | 1009.4 hPa | 0 mm | - | 410 W/m² | - |
| 1777568883 | 15.56° C | 67% | 1009.7 hPa | 0 mm | - | 362 W/m² | - |
| 1777568580 | 15.56° C | 68% | 1009.6 hPa | 0 mm | - | 334 W/m² | - |
| 1777568278 | 15.56° C | 69% | 1009.5 hPa | 0 mm | - | 351 W/m² | - |
| 1777567974 | 15.56° C | 68% | 1009.6 hPa | 0 mm | - | 483 W/m² | - |
| 1777567670 | 15.56° C | 68% | 1009.9 hPa | 0 mm | - | 444 W/m² | - |
| 1777567368 | 15° C | 68% | 1010.2 hPa | 0 mm | - | 456 W/m² | - |
| 1777567066 | 15° C | 68% | 1009.9 hPa | 0 mm | - | 396 W/m² | - |
| 1777566763 | 15.56° C | 67% | 1010.2 hPa | 0 mm | - | 356 W/m² | - |
| 1777566461 | 15.56° C | 68% | 1010.3 hPa | 0 mm | - | 321 W/m² | - |
| 1777566158 | 15.56° C | 69% | 1010.2 hPa | 0 mm | - | 365 W/m² | - |
| 1777565854 | 15° C | 70% | 1010.4 hPa | 0 mm | - | 396 W/m² | - |
| 1777565550 | 15° C | 73% | 1010.3 hPa | 0 mm | - | 422 W/m² | - |
| 1777565247 | 15° C | 70% | 1010.4 hPa | 0 mm | - | 420 W/m² | - |
| 1777564943 | 15° C | 71% | 1010.7 hPa | 0 mm | - | 450 W/m² | - |
| 1777564639 | 13.89° C | 74% | 1010.7 hPa | 0 mm | - | 406 W/m² | - |
| 1777564334 | 13.89° C | 73% | 1010.8 hPa | 0 mm | - | 407 W/m² | - |
| 1777564031 | 13.89° C | 75% | 1010.9 hPa | 0 mm | - | 433 W/m² | - |
| 1777563727 | 14.44° C | 74% | 1011 hPa | 0 mm | - | 417 W/m² | - |
| 1777563423 | 13.89° C | 75% | 1011.1 hPa | 0 mm | - | 634 W/m² | - |
| 1777563117 | 13.89° C | 75% | 1011.3 hPa | 0 mm | - | 508 W/m² | - |
| 1777562812 | 13.89° C | 78% | 1011.2 hPa | 0 mm | - | 373 W/m² | - |
| 1777562505 | 13.33° C | 77% | 1011.7 hPa | 0 mm | - | 596 W/m² | - |
| 1777562203 | 13.33° C | 79% | 1011.6 hPa | 0 mm | - | 473 W/m² | - |
| 1777561900 | 13.33° C | 78% | 1011.7 hPa | 0 mm | - | 327 W/m² | - |
* Rain latest hour (hover to see other rain measurements)
** Current wind speed in m/s (hover to see current wind gust speed)